Location: Bagong Pook
(14.2541°N, 120.8791°E)
Time: 03:27:21
(UTC+00:00)

Daily predictions for brighter satellites

Satellite Brightness Start Highest point End
(mag) Time Altitude Azimuth Time Altitude Azimuth Time Altitude Azimuth
Cosmos 1470 Rocket 4.1 10:00:23 10° NNE 10:04:23 37° E 10:08:25 10° SSE
Cosmos 1452 Rocket 4.1 10:04:17 10° SSW 10:09:26 63° WNW 10:14:37 10° N
SAR-Lupe-4 3.6 10:07:31 10° SSE 10:11:01 56° ENE 10:14:30 10° N
Cosmos 676 Rocket 4.4 10:07:21 10° N 10:12:15 42° ENE 10:17:10 10° SE
Cosmos 1833 Rocket 3.5 10:09:55 10° SSE 10:14:50 31° ESE 10:19:44 10° NE
Cosmos 1992 Rocket 4.4 10:22:11 10° S 10:27:03 43° E 10:31:55 10° NNE
Resurs 1-3 3.7 10:25:08 10° SSE 10:29:15 48° ENE 10:33:22 10° N
CARTOSAT-1 4.5 10:29:45 10° SE 10:33:12 25° ENE 10:36:38 10° NNE
CZ-2D R/B 3.4 10:29:56 10° SSE 10:33:46 51° ENE 10:37:32 10° N
Ariane H10+ 3.8 10:26:23 10° WSW 10:35:39 35° SSW 10:38:37 10° SE
SL-8 Rocket 4.4 10:29:45 10° NNW 10:35:51 66° W 10:41:54 10° S
Intelsat 5-3 Rocket 4.4 10:25:17 10° WNW 10:35:58 40° N 10:39:50 17° NE
Cosmos 2369 Rocket 2.8 10:31:15 10° NNW 10:36:49 61° WSW 10:42:21 10° S
Cosmos 1340 Rocket 3.9 10:37:38 19° ENE 10:38:26 21° E 10:41:21 10° SE
Meteosat 1 Rocket2 4.0 10:36:37 10° W 10:40:20 37° NNW 10:43:44 17° NE
SWIFT 2.7 10:41:39 10° WNW 10:44:40 31° N 10:45:38 26° NE
Cosmos 1953 2.9 10:41:35 10° NNW 10:45:10 52° W 10:48:45 10° S
Cosmos 1862 Rocket 4.2 10:43:23 10° SSE 10:47:22 34° E 10:49:23 23° NE
Helios 1A Rocket 3.5 10:45:29 10° N 10:48:38 43° WNW 10:51:47 10° SSW
Cosmos 1339 Rocket 4.5 10:49:51 10° S 10:56:10 89° E 11:02:22 10° N
BlueWalker 3 3.6 10:54:15 10° SSE 10:56:11 17° SE 10:56:11 17° SE
Delta 2 Rocket 4.0 10:50:30 10° WNW 10:57:35 67° NNE 11:01:19 25° E
Resurs 01 Rocket 1.9 10:54:27 10° SE 10:58:32 40° ENE 11:01:26 17° NNE
Cosmos 1821 Rocket 4.1 10:53:39 10° N 10:59:46 77° W 11:05:49 10° S
Meteor 2-15 4.4 10:54:43 10° N 11:00:49 85° W 11:06:54 10° S
Meteor 2-19 Rocket 4.4 10:57:11 10° S 11:03:13 60° E 11:08:55 12° NNE
Cosmos 1707 Rocket 3.5 10:59:34 10° S 11:03:49 55° E 11:05:18 36° NE
Cosmos 2228 Rocket 3.4 11:01:42 10° SSE 11:05:58 41° E 11:06:13 41° E
YAOGAN 1 3.5 11:02:26 10° S 11:06:31 48° W 11:10:37 10° NNW
Delta 7925 Rocket 4.4 11:02:53 10° W 11:10:40 57° NNW 11:13:31 33° NE
ATLAS 5 CENTAUR R/B 2.2 11:14:24 10° WNW 11:14:56 17° WNW 11:14:56 17° WNW
Delta 168 3.1 11:15:12 10° SW 11:18:22 45° S 11:18:22 45° S
Meteor 1-24 Rocket 4.3 11:14:33 10° SSE 11:18:33 36° ESE 11:18:33 36° ESE
GPS 2-17 Rocket1 3.5 11:20:45 10° WNW 11:24:34 44° NNW 11:24:34 44° NNW
USA 305 4.3 11:30:09 10° SSW 11:31:23 23° SSW 11:31:23 23° SSW
Cosmos 1741 Rocket 4.2 11:36:01 10° NNW 11:41:10 68° WSW 11:46:17 10° S
Cosmos 2082 Rocket 3.8 11:39:30 10° S 11:41:31 21° SSE 11:41:31 21° SSE
Cosmos 1934 Rocket 3.8 11:44:46 45° N 11:46:53 88° E 11:53:10 10° S
